GW5292 Weather Reports


time (UTC)temp
F
wind
direction
speed
knots
gust
knots
rain 1hr
in
rain 24hr
in
rain mn
in
humidity
%
barometer
mb
20260901113004 69 182 0.0 0.0 0.00 0.03 0.00 97 1015.8
20260901111504 68 182 0.0 0.0 0.00 0.03 0.00 97 1016.0
20260901110007 68 182 0.0 0.0 0.00 0.03 0.00 97 1016.1
20260901104503 68 182 0.0 0.0 0.00 0.03 0.00 97 1016.1
20260901103003 68 182 0.0 0.0 0.00 0.03 0.00 97 1016.3
20260901101503 68 182 0.0 0.0 0.00 0.03 0.00 97 1016.1
20260901100003 68 182 0.0 0.0 0.00 0.03 0.00 97 1016.1
20260901094506 68 182 0.0 0.0 0.00 0.03 0.00 96 1016.1
20260901093004 68 182 0.0 0.0 0.00 0.03 0.00 96 1016.2
20260901091503 68 182 0.0 0.0 0.00 0.03 0.00 96 1016.3
20260901090013 68 182 0.0 0.0 0.00 0.03 0.00 96 1016.2
20260901084505 68 182 0.0 0.0 0.00 0.03 0.00 96 1016.3
20260901083008 69 182 0.0 0.0 0.00 0.03 0.00 96 1016.4
20260901081516 68 182 0.0 0.0 0.00 0.03 0.00 96 1016.4
20260901080005 68 182 0.0 0.0 0.00 0.03 0.00 96 1016.5
20260901074507 68 182 0.0 0.0 0.00 0.03 0.00 96 1016.7
20260901073022 68 182 0.0 0.0 0.00 0.03 0.00 96 1016.7
20260901071509 69 182 0.0 0.0 0.00 0.03 0.00 96 1016.6
20260901070023 69 182 0.0 0.0 0.00 0.03 0.00 96 1016.6
20260901064511 69 182 0.0 0.0 0.00 0.03 0.00 96 1016.7
20260901063011 69 182 0.0 0.0 0.00 0.03 0.00 96 1016.9
20260901061511 69 182 0.0 0.0 0.00 0.03 0.00 96 1017.0
20260901060011 69 182 0.0 0.0 0.00 0.03 0.00 95 1017.3
20260901054513 69 182 0.0 0.0 0.00 0.03 0.00 96 1017.3
20260901053011 69 182 0.0 0.0 0.00 0.03 0.00 96 1017.4
20260901051513 69 182 0.0 0.0 0.00 0.03 0.00 96 1017.5
20260901050018 69 182 0.0 0.0 0.00 0.03 0.00 95 1017.7
20260901044516 70 182 0.0 0.0 0.00 0.03 0.00 95 1017.5
20260901043018 69 182 0.0 0.0 0.00 0.03 0.00 95 1017.4
20260901041515 70 182 0.0 0.0 0.01 0.03 0.00 95 1017.5
20260901040020 70 182 0.0 0.0 0.01 0.03 0.00 94 1017.8
20260901034522 70 182 0.0 0.0 0.01 0.03 0.03 94 1017.9
20260901033034 70 182 0.0 0.0 0.01 0.03 0.03 94 1017.8
20260901031520 70 182 0.0 0.0 0.00 0.02 0.02 93 1018.0
20260901030015 70 182 0.0 0.0 0.00 0.02 0.02 94 1018.3
20260901024526 70 182 0.0 0.0 0.00 0.02 0.02 94 1018.3
20260901023028 70 182 0.0 0.0 0.00 0.02 0.02 94 1018.3
20260901021522 69 182 0.0 0.0 0.00 0.02 0.02 93 1018.3
20260901020028 69 182 0.0 0.0 0.00 0.02 0.02 93 1018.3
20260901014517 69 182 0.0 0.0 0.00 0.02 0.02 93 1018.2
20260901013023 69 182 0.0 0.0 0.00 0.02 0.02 92 1018.2
20260901011526 70 182 0.0 0.0 0.00 0.02 0.02 92 1018.2
20260901010025 70 182 0.0 0.0 0.00 0.02 0.02 91 1018.1
20260901004532 70 182 0.0 0.0 0.00 0.02 0.02 91 1018.1
20260901003024 71 182 0.0 0.0 0.00 0.02 0.02 90 1018.1
20260901001533 71 182 0.0 0.0 0.00 0.02 0.02 89 1018.0
20260901000027 72 182 0.0 0.0 0.00 0.02 0.02 87 1018.0
20260831234537 73 182 0.0 0.0 0.00 0.02 0.02 86 1017.9
20260831233029 73 182 0.0 0.0 0.00 0.02 0.02 85 1017.9
20260831231522 74 182 0.0 1.7 0.00 0.02 0.02 84 1017.9
20260831230029 74 182 0.0 1.7 0.00 0.02 0.02 83 1018.0
20260831224530 75 182 0.0 0.0 0.00 0.02 0.02 83 1018.2
20260831223028 75 182 0.0 1.7 0.00 0.02 0.02 82 1018.2
20260831221531 75 182 0.0 1.7 0.00 0.02 0.02 81 1018.3
20260831220030 75 182 0.0 0.0 0.00 0.02 0.02 81 1018.5
20260831214540 76 182 0.0 1.7 0.00 0.02 0.02 79 1018.6
20260831213038 76 182 0.0 1.7 0.00 0.02 0.02 81 1018.6
20260831211530 75 182 0.0 0.9 0.00 0.02 0.02 83 1018.7
20260831210004 75 182 0.0 1.7 0.00 0.02 0.02 85 1018.8
20260831204504 74 182 0.0 1.7 0.00 0.02 0.02 84 1019.0
20260831203037 74 203 0.0 1.7 0.00 0.02 0.02 85 1019.2
20260831201518 73 200 0.9 1.7 0.01 0.02 0.02 91 1019.3
20260831200026 72 207 0.0 1.7 0.02 0.02 0.02 90 1019.3
20260831194504 73 207 0.0 0.9 0.02 0.02 0.02 90 1019.4
20260831193011 73 207 0.0 1.7 0.02 0.02 0.02 88 1019.5
20260831191515 73 207 0.9 1.7 0.01 0.01 0.01 86 1020.0
20260831190026 74 192 0.0 1.7 0.00 0.00 0.00 83 1019.8
20260831184530 75 192 0.9 1.7 0.00 0.00 0.00 81 1019.9
20260831183007 76 192 0.9 1.7 0.00 0.00 0.00 78 1020.2
20260831181510 76 192 0.9 1.7 0.00 0.00 0.00 75 1020.2
20260831180020 77 192 0.0 1.7 0.00 0.00 0.00 78 1020.1
20260831174524 76 192 0.0 1.7 0.00 0.00 0.00 77 1020.2
20260831173027 76 192 0.9 1.7 0.00 0.00 0.00 75 1020.2
20260831171509 77 342 0.0 1.7 0.00 0.00 0.00 75 1020.0
20260831170026 76 342 0.9 1.7 0.00 0.00 0.00 74 1020.2
20260831164519 77 351 0.9 2.6 0.00 0.00 0.00 72 1020.3
20260831163028 77 209 0.0 2.6 0.00 0.00 0.00 75 1020.2
20260831161532 76 12 0.0 2.6 0.00 0.00 0.00 74 1020.4
20260831160018 76 18 0.0 2.6 0.00 0.00 0.00 74 1020.3
20260831154543 76 277 0.9 3.5 0.00 0.00 0.00 75 1020.3
20260831153046 75 173 0.9 3.5 0.00 0.00 0.00 75 1020.6
20260831151527 74 13 0.9 2.6 0.00 0.00 0.00 79 1020.6
20260831150008 74 341 1.7 2.6 0.00 0.00 0.00 78 1020.6
20260831144515 73 9 0.0 1.7 0.00 0.00 0.00 81 1020.6
20260831143023 73 9 0.9 1.7 0.00 0.00 0.00 80 1020.7
20260831141529 73 9 0.9 1.7 0.00 0.00 0.00 80 1020.6
20260831140013 73 345 0.0 1.7 0.00 0.00 0.00 80 1020.8
20260831134513 73 352 0.0 1.7 0.00 0.00 0.00 81 1020.7
20260831133019 73 342 0.0 1.7 0.00 0.00 0.00 82 1020.8
20260831131528 72 23 0.0 1.7 0.00 0.00 0.00 1020.5
20260831130040 72 352 0.0 1.7 0.00 0.00 0.00 83 1020.7
20260831124512 71 59 0.0 1.7 0.00 0.00 0.00 85 1020.6
20260831123030 70 325 0.9 2.6 0.00 0.00 0.00 88 1020.5
20260831121527 70 73 0.0 0.9 0.00 0.00 0.00 89 1020.5
20260831120100 69 350 0.0 0.0 0.00 0.00 0.00 91 1020.5
20260831114534 68 350 0.0 0.0 0.00 0.00 0.00 93 1020.4